[[{"header":{"parameterUnit":"m.s-1","parameterCategory":1,"la1":30.2991,"la2":30.254,"lo1":-89.0895,"lo2":-89.0444,"dy":0.0017,"dx":0.0017,"nx":28,"ny":28,"refTime":"2023-08-11T03:00:00:Z","depth":0,"parameterNumber":2,"parameterNumberName":"U-component_of_WINDS"},"data":[0,0,0,0,0,0,0,0,0,0,0,0,0,0,0,0,0,0,0,0,0,0,0,0,0,0,0,0,0,0,0,0,0,0,0,0,0,0,0,0,0,0,0,0,0,0,0,0,0,0,0,0,0,0,0,0,0,0,5.8803,5.8804,0,5.8927,5.8929,5.893,5.8859,5.8856,5.8852,5.8849,5.8976,5.8982,5.8988,0,0,0,0,0,0,0,0,0,0,0,0,0,5.8501,5.8506,5.8803,5.8804,5.8806,5.8927,5.8929,5.893,5.886,5.8856,5.8852,5.8848,5.8973,5.8981,5.8989,0,0,0,0,0,0,0,0,0,0,0,0,0,5.8629,5.8508,5.8802,5.8785,5.8785,5.8927,5.8929,5.8931,5.8861,5.8856,5.885,5.8846,5.8971,5.898,5.899,5.9155,0,0,5.902,5.9025,0,0,0,0,0,0,0,0,5.8622,5.864,5.8786,5.8787,5.8787,5.8872,5.8868,5.9006,5.8862,5.8832,5.8849,5.8843,5.8945,5.8957,5.8992,5.9161,5.9167,5.9021,5.9027,5.9032,5.9034,0,0,0,0,0,0,0,5.8613,5.8634,5.8852,5.8788,5.8789,5.877,5.8783,5.8894,5.8916,5.8834,5.8829,5.8845,5.8944,5.8982,5.8994,5.9169,5.9021,5.903,5.9036,5.904,5.9476,5.9481,0,0,0,0,0,0,5.8606,5.8628,5.8848,5.8856,5.869,5.878,5.8794,5.885,5.8915,5.892,5.8849,5.8841,5.8968,5.8983,5.8998,5.9193,5.9031,5.9041,5.9046,5.947,5.9477,5.9483,0,0,0,0,0,0,5.8599,5.8626,5.8843,5.874,5.8767,5.8791,5.8854,5.8855,5.8893,5.8926,5.893,5.8884,5.8965,5.8984,5.9116,5.9196,5.9045,5.9054,5.9463,5.9472,5.948,5.9585,0,0,0,0,0,0,5.8591,5.8624,5.8688,5.8742,5.8772,5.896,5.8859,5.8862,5.8911,5.8901,5.896,5.8965,5.8962,5.9102,5.9126,5.9207,5.9062,5.9456,5.9467,5.9477,5.9574,5.9596,5.9614,0,0,0,0,0,5.8581,5.8713,5.8692,5.8719,5.8853,5.8965,5.8981,5.8976,5.8917,5.8981,5.9002,5.8963,5.9184,5.9116,5.9142,5.9228,5.9451,5.9464,5.9477,5.9565,5.9592,5.9614,0,0,0,0,0,0,5.8668,5.872,5.8697,5.8851,5.8904,5.8952,5.9032,5.9005,5.9075,5.9063,5.9053,5.9066,5.9203,5.9229,5.9152,5.9389,5.9308,5.9327,5.9367,5.9392,5.9412,5.9401,5.907,0,0,0,0,0,5.8705,5.8793,5.8833,5.8966,5.8993,5.9009,5.9057,5.9048,5.9102,5.9124,5.9154,5.9208,5.9288,5.9342,5.9419,5.9579,5.9588,5.965,5.967,5.9687,5.9702,5.9784,5.9811,5.9525,5.9525,5.9524,0,0,5.8783,5.8823,5.8878,5.8984,5.9024,5.9112,5.9028,5.9126,5.9191,5.9139,5.9263,5.9288,5.9347,5.9492,5.9557,5.9518,5.9783,5.9703,5.9715,5.9722,5.98,5.9827,5.9851,5.9533,5.9532,5.953,0,0,5.897,5.901,5.9122,5.9164,5.9225,5.9234,5.9261,5.9313,5.9327,5.9453,5.9414,5.9491,5.9632,5.9674,5.9714,5.9915,5.988,5.994,6.0043,6.0124,6.0146,6.0166,6.0234,6.0259,5.9956,5.9956,5.9956,0,5.9058,5.9191,5.9184,5.9284,5.933,5.9287,5.94,5.944,5.9523,5.9555,5.951,5.9684,5.9721,5.9873,5.9921,5.9957,5.9985,5.9932,6.0144,6.0164,6.0182,6.0246,6.0272,5.9963,5.9962,5.9961,5.9961,0,5.9295,5.9388,5.9472,5.9552,5.9608,5.9714,5.9721,5.9779,5.9765,5.9778,5.9905,5.9947,6.003,6.0066,6.0054,6.0217,6.0189,6.0145,6.0063,6.0216,6.0276,6.0301,5.9972,5.997,5.9968,5.9966,0,0,5.954,5.9613,5.9644,5.9678,5.9742,5.9812,5.9916,5.9997,6.0044,6.0103,6.0187,6.0307,6.0265,6.031,6.0302,6.0373,6.0524,6.0319,6.032,6.0353,6.0701,6.0732,6.0761,6.0503,6.0508,6.0512,6.0695,0,5.9727,5.9907,5.9903,6.007,6.0153,6.0113,6.0202,6.025,6.0265,6.0337,6.0353,6.0436,6.0377,6.0403,6.0472,6.0492,6.0594,6.0479,6.0579,6.0582,6.0562,6.0793,6.0826,6.0997,6.0719,6.0723,6.0726,0,5.997,6.0035,6.021,6.0258,6.0293,6.0374,6.0446,6.0516,6.0569,6.0574,6.0624,6.0604,6.0707,6.0624,6.0764,6.0685,6.0726,6.0742,6.0748,6.0754,6.0661,6.0802,6.1052,6.1077,6.0764,6.0761,6.0758,0,6.0125,6.0258,6.0379,6.041,6.047,6.0527,6.0555,6.0602,6.065,6.0713,6.0743,6.0818,6.0858,6.0915,6.0915,6.0856,6.1055,6.0973,6.106,6.106,6.1101,6.1098,6.1358,6.1134,6.1134,6.1133,6.1133,0,6.0333,6.0441,6.0449,6.0523,6.0642,6.0635,6.0752,6.0774,6.0816,6.0892,6.0863,6.0935,6.0932,6.1005,6.1006,6.1118,6.1138,6.1143,6.1142,6.1144,6.1143,6.1168,6.1155,6.114,6.1139,6.1137,6.1136,0,6.0526,6.0536,6.0664,6.0711,6.0725,6.081,6.0848,6.0918,6.093,6.1026,6.1048,6.1067,6.1151,6.1157,6.1255,6.1255,6.139,6.1378,6.1373,6.1369,6.1454,6.1444,6.1736,6.1772,6.1528,6.1531,6.1533,0,6.0656,6.0738,6.0792,6.0841,6.0872,6.0951,6.0999,6.0996,6.1047,6.1111,6.1172,6.1253,6.1317,6.1452,6.1473,6.1547,6.1533,6.163,6.1544,6.1542,6.153,6.1523,6.153,6.1646,6.1649,6.1651,6.1653,0,6.0885,6.0885,6.0956,6.1029,6.1087,6.1144,6.1197,6.1238,6.124,6.1299,6.1384,6.1434,6.1532,6.1611,6.1682,6.1709,6.1681,6.168,6.1703,6.1705,6.1697,6.1698,6.1414,6.1673,6.1671,6.1669,6.1668,6.1668,6.1048,6.1117,6.1165,6.1244,6.1284,6.1333,6.1399,6.1419,6.149,6.1569,6.1563,6.1656,6.1703,6.1796,6.1829,6.19,6.1867,6.1902,6.191,6.1917,6.1924,6.1688,6.1913,6.1913,6.1912,6.1912,6.1912,0,6.1271,6.13,6.1373,6.1447,6.1509,6.1478,6.1534,6.1587,6.1669,6.1716,6.1779,6.1875,6.1951,6.1979,6.2052,6.2104,6.2092,6.2123,6.2117,6.2123,6.1952,6.1922,6.2131,6.2131,6.2131,6.2131,6.2131,6.2131,6.1395,6.1509,6.1515,6.1647,6.1675,6.1765,6.18,6.1844,6.1881,6.1989,6.2052,6.207,6.2108,6.2184,6.2251,6.2257,6.2284,6.2319,6.2319,6.2158,6.2136,6.2115,6.2087,6.2326,6.2327,6.2484,6.2486,6.2487]},{"header":{"parameterUnit":"m.s-1","parameterCategory":1,"la1":30.2991,"la2":30.254,"lo1":-89.0895,"lo2":-89.0444,"dy":0.0017,"dx":0.0017,"nx":28,"ny":28,"refTime":"2023-08-11T03:00:00:Z","depth":0,"parameterNumber":3,"parameterNumberName":"V-component_of_WINDS"},"data":[0,0,0,0,0,0,0,0,0,0,0,0,0,0,0,0,0,0,0,0,0,0,0,0,0,0,0,0,0,0,0,0,0,0,0,0,0,0,0,0,0,0,0,0,0,0,0,0,0,0,0,0,0,0,0,0,0,0,3.1427,3.1428,0,3.1534,3.1536,3.1537,3.1543,3.1541,3.154,3.1539,3.1647,3.1651,3.1655,0,0,0,0,0,0,0,0,0,0,0,0,0,3.1223,3.1227,3.1427,3.1428,3.143,3.1534,3.1536,3.1537,3.1543,3.1541,3.154,3.1538,3.1646,3.165,3.1655,0,0,0,0,0,0,0,0,0,0,0,0,0,3.1319,3.1228,3.1427,3.1445,3.1448,3.1534,3.1536,3.1537,3.1543,3.1541,3.1539,3.1538,3.1644,3.165,3.1656,3.1731,0,0,3.1674,3.1677,0,0,0,0,0,0,0,0,3.1314,3.1327,3.1441,3.1444,3.1447,3.1523,3.1503,3.1602,3.1544,3.1507,3.1539,3.1537,3.1607,3.1616,3.164,3.1736,3.174,3.1675,3.1679,3.1681,3.1683,0,0,0,0,0,0,0,3.1307,3.1322,3.1469,3.1443,3.1446,3.1447,3.1458,3.1522,3.1566,3.151,3.1511,3.1523,3.1608,3.1635,3.1643,3.1742,3.1675,3.168,3.1684,3.1686,3.1901,3.1903,0,0,0,0,0,0,3.1297,3.1316,3.1466,3.1473,3.1374,3.1452,3.1465,3.1501,3.1565,3.1574,3.1525,3.1523,3.1625,3.1636,3.1647,3.1737,3.1681,3.1687,3.169,3.1899,3.1901,3.1904,0,0,0,0,0,0,3.1293,3.131,3.1462,3.1395,3.1414,3.1457,3.1497,3.1504,3.153,3.1577,3.1584,3.1544,3.1624,3.1638,3.1709,3.1741,3.169,3.1695,3.1896,3.19,3.1902,3.1918,0,0,0,0,0,0,3.1287,3.1309,3.1339,3.1395,3.1418,3.1523,3.1499,3.1507,3.154,3.1539,3.1596,3.1604,3.1624,3.17,3.1715,3.1748,3.17,3.1894,3.1898,3.1901,3.1915,3.1921,3.1927,0,0,0,0,0,3.128,3.1339,3.134,3.1358,3.1456,3.1525,3.1538,3.156,3.1543,3.1572,3.1602,3.1602,3.1735,3.1707,3.1724,3.176,3.1892,3.1897,3.1901,3.1912,3.192,3.1927,0,0,0,0,0,0,3.1285,3.1347,3.1349,3.1428,3.1471,3.1526,3.1564,3.1568,3.1616,3.1613,3.1638,3.1651,3.172,3.1747,3.1716,3.1834,3.1811,3.1819,3.1814,3.1822,3.1828,3.1819,3.1705,0,0,0,0,0,3.1295,3.1347,3.1398,3.1463,3.1485,3.1521,3.1552,3.1565,3.161,3.1629,3.1664,3.1707,3.1758,3.1791,3.1841,3.1919,3.193,3.1951,3.1957,3.1962,3.1968,3.2009,3.2018,3.1919,3.1919,3.1919,0,0,3.1317,3.1357,3.1389,3.1465,3.15,3.1552,3.1536,3.1593,3.1631,3.1637,3.1706,3.1733,3.1783,3.1857,3.1891,3.1881,3.1998,3.1968,3.1971,3.1975,3.2015,3.2024,3.2033,3.1922,3.1921,3.1921,0,0,3.1384,3.142,3.1478,3.1513,3.1566,3.1589,3.1602,3.1656,3.1674,3.1744,3.1749,3.1794,3.1883,3.1917,3.1946,3.2023,3.2024,3.2039,3.207,3.2109,3.2117,3.2124,3.215,3.2159,3.2045,3.2046,3.2046,0,3.1404,3.1484,3.1507,3.1563,3.1595,3.1603,3.166,3.1693,3.1759,3.1781,3.1769,3.1878,3.1912,3.1994,3.2012,3.2036,3.2051,3.2033,3.2114,3.2122,3.2128,3.2154,3.2163,3.2047,3.2047,3.2047,3.2046,0,3.1506,3.1561,3.16,3.1664,3.1701,3.1758,3.1787,3.1822,3.1831,3.1855,3.1924,3.1965,3.2023,3.2043,3.2053,3.2125,3.2117,3.2109,3.2087,3.2139,3.2163,3.2173,3.2049,3.2048,3.2048,3.2048,0,0,3.158,3.1654,3.1668,3.1696,3.1754,3.1796,3.1852,3.1908,3.1937,3.1982,3.2028,3.2101,3.2094,3.2127,3.214,3.2175,3.2231,3.2163,3.2164,3.2173,3.2311,3.2316,3.2327,3.2232,3.2234,3.2236,3.2307,0,3.1652,3.1752,3.1773,3.1859,3.1909,3.1915,3.1964,3.2003,3.2027,3.2071,3.2096,3.2148,3.2135,3.2155,3.2189,3.2217,3.2259,3.2212,3.2274,3.2276,3.2261,3.234,3.2346,3.2411,3.2316,3.2318,3.2319,0,3.175,3.1797,3.1888,3.1937,3.1959,3.2002,3.2054,3.2097,3.2141,3.2156,3.2191,3.2201,3.2257,3.2232,3.2309,3.2276,3.2303,3.232,3.2323,3.2329,3.23,3.2347,3.2432,3.2441,3.2334,3.2333,3.2332,0,3.1793,3.1879,3.1944,3.1968,3.2027,3.2057,3.2083,3.2126,3.2158,3.2203,3.2223,3.2274,3.2302,3.234,3.2362,3.2342,3.2437,3.2414,3.2449,3.2448,3.2469,3.2467,3.2558,3.2487,3.2487,3.2486,3.2486,0,3.1871,3.1926,3.1964,3.2004,3.2065,3.2087,3.2147,3.2172,3.221,3.2254,3.2263,3.2303,3.233,3.2374,3.2392,3.2451,3.2464,3.2476,3.248,3.2475,3.2473,3.2492,3.2488,3.2489,3.2488,3.2488,3.2487,0,3.193,3.1957,3.2028,3.2079,3.2092,3.2135,3.2177,3.2215,3.2238,3.2293,3.2307,3.2342,3.2394,3.242,3.2485,3.2496,3.2564,3.2565,3.2549,3.255,3.2583,3.2579,3.2689,3.2704,3.2623,3.2624,3.2625,0,3.1977,3.202,3.2074,3.2104,3.2131,3.2179,3.2212,3.2235,3.2268,3.232,3.2351,3.2404,3.2447,3.253,3.256,3.2609,3.2611,3.2646,3.2619,3.2612,3.261,3.2607,3.2611,3.2651,3.2652,3.2652,3.2653,0,3.2058,3.2069,3.2116,3.2167,3.2205,3.2246,3.2286,3.231,3.2339,3.2375,3.2429,3.2462,3.2528,3.2579,3.263,3.2655,3.2659,3.2661,3.2672,3.2667,3.2655,3.266,3.2561,3.2659,3.2658,3.2658,3.2657,3.2657,3.2112,3.2149,3.2193,3.2244,3.2276,3.2313,3.2351,3.2378,3.2423,3.2478,3.2489,3.2545,3.2586,3.2655,3.2682,3.2725,3.2717,3.2732,3.2736,3.2739,3.274,3.2649,3.2734,3.2734,3.2734,3.2734,3.2734,0,3.2193,3.2221,3.2267,3.2323,3.2362,3.2362,3.2406,3.2439,3.2488,3.2527,3.2569,3.2629,3.2678,3.2712,3.2762,3.279,3.2792,3.2802,3.2799,3.2805,3.2745,3.2731,3.2799,3.2799,3.2799,3.2799,3.2799,3.2799,3.2239,3.2301,3.2317,3.2395,3.2422,3.2478,3.2503,3.2536,3.2567,3.2633,3.2675,3.2696,3.2732,3.2784,3.2829,3.2837,3.2855,3.2864,3.2872,3.2816,3.2809,3.2803,3.2789,3.2868,3.2868,3.2928,3.2929,3.2929]}]]